Location: Newark
(44.3248°N, 23.7839°E)
Time: 06:40:11
(UTC+00:00)

FO-29 - Pass Details

Date: 28 April 2024
Orbit: 801 x 1320 km, 98.6° (Epoch: 28 May)

Event Time Altitude Azimuth Distance (km) Brightness Sun altitude
Rises 00:13:33 0° 14° (NNE) 4,241 14.0 -26.2°
Reaches altitude 10° 00:16:13 10° 16° (NNE) 3,306 13.2 -26.0°
Maximum altitude 00:24:02 80° 103° (ESE) 1,343 10.1 -25.2°
Enters shadow 00:27:15 41° 185° (S) 1,833 10.5 -24.9°
